Voltar ao catálogo

CZ-6A DEB

AtivoSSO
NORAD 56676·DEBRIS·🇨🇳 China

Lançado Nov 11, 2022 de Taiyuan Satellite Launch Center

Loading…

Próximas Passagens (próximas 24 horas)

TLE

AtualizadoSource: Space-Track

Época: Sep 14, 2026, 22:26 UTC

1 56676U 22151AHC 26257.93506244  .00000179  00000-0  12501-3 0  9995
2 56676  98.8601 259.2075 0045878  86.9669 273.6750 14.09856031174470

Acompanhe CZ-6A DEB em tempo real com AllMySat

Download on the App Store